Gillette, WY (82716)

10:57 AM MDT on April 28, 2017 (GMT -0600)
Lakeland Hills | | Change Station
Active Advisory: Winter Weather Advisory

Elev 4580 ft 44.30 °N, 105.48 °W | Updated 1 second ago

Light Snow
Light Snow
37.9 °F
Feels Like 38 °F
N
0.0
Wind Variable Wind from NW
Gusts 0.0 mph

Today
High -- | Low -- °F
--% Chance of Precip.
Yesterday
High -- | Low -- °F
Precip. -- in
Pressure 29.97 in
Visibility -9999.0 miles
Clouds Overcast 800 ft
Windchill 38 °F
Dew Point 36 °F
Humidity 92%
Rainfall 0.00 in
Snow Depth Not available.
5:56 AM 8:03 PM
Waxing Crescent, 7% visible
METAR KGCC 281653Z AUTO 01013KT -SN OVC008 01/00 A2991 RMK AO2 SLP149 P0001 T00060000 $
Pressure 29.97 in
Visibility -9999.0 miles
Clouds Overcast 800 ft
Windchill 38 °F
Dew Point 36 °F
Humidity 92%
Rainfall 0.00 in
Snow Depth Not available.
5:56 AM 8:03 PM
Waxing Crescent, 7% visible
METAR KGCC 281653Z AUTO 01013KT -SN OVC008 01/00 A2991 RMK AO2 SLP149 P0001 T00060000 $

Get Your Daily Forecast Email!

Thanks for signing up!

Be on the lookout for a verification email in your inbox.

You'll start receiving severe weather alerts in your inbox..

×

10-Day Weather Forecast

Almanac

Astronomy

Apr. 28, 2017 Rise Set
Actual Time
Civil Twilight
Nautical Twilight
Astronomical Twilight
Moon
Length of Visible Light
Length of Day
Tomorrow will be .
, % of the Moon is Illuminated

Today's Extremes

State Highs State Lows

Community

WunderPhotos

WunderBlog® & News

Nearby

Air Quality

  Air Quality AQ Index Pollutant
Not available.

Snow Depth

Station Depth Elevation

Earthquake Activity

City Distance Mag. Time & Date
Minimum magnitude displayed is 2.5.

Coastal Water Temperatures

Place Temperature

Stations

Nearby Weather Stations

Station Location Temp. Windchill Dew Point Humidity Wind Precip. Elev Updated Type
                   

Watches & Warnings

Winter Weather Advisory
Issued: 3:45 AM MDT Apr. 28, 2017 – National Weather Service

... Winter Weather Advisory remains in effect until 6 PM MDT this
evening...

* timing... snow, light to moderate at times, will continue through
at least early this afternoon, then begin to taper off later in
the afternoon.

* Main impact... snowfall totals of 2 to 6 inches are expected.
The heaviest snowfall totals will generally be found across
western portions of northern Campbell County and southwestern
portions of Weston County.

* Other impacts... visibilities will be reduced to near a quarter
mile in the heavier snow. With many trees beginning to Leaf
out, the heavy wet snow could bring down some tree limbs.

Precautionary/preparedness actions...

A Winter Weather Advisory for snow means snow accumulation will
create hazardous conditions. Use caution when traveling.